Lexington Weather

Lexington, Massachusetts, USA

67°F
9/23/2021 4:42am 
  • Lexington Conditions: Overcast
  • Temperature: 67.1°F / 19.5°CWarmer 0.7°F than last hour.
  • Dew Point: 66.2°FIncreased 1.1°Fsince last hour.
  • Relative Humidity: 97%Increased 1.0% since last hour.
  • Wind: Calm, 10-min avg: Calm, gust: 3 mph
  • Barometer: 30.03 in Steady
  • Visibility: 10 miles
  • Rain Today: 0.00 in
  •   

Regional Weather Roundup
for Boston / Norton, MA

        
000
ASUS41 KBOX 182204
RWRBOX

REGIONAL WEATHER ROUNDUP
NATIONAL WEATHER SERVICE BOSTON/NORTON MA
600 PM EDT SAT SEP 18 2021

NOTE:  "FAIR" INDICATES FEW OR NO CLOUDS BELOW 12,000 FEET WITH NO 
SIGNIFICANT WEATHER AND/OR OBSTRUCTIONS TO VISIBILITY.

MAZALL-182300-
EASTERN MASSACHUSETTS
  
CITY           SKY/WX    TMP DP  RH WIND       PRES   REMARKS
BOSTON         PTCLDY    71  65  81 SE6       29.96S                  
BEVERLY        CLEAR     71  67  87 SE3       29.95S                  
LAWRENCE       CLEAR     79  66  64 CALM      29.97S                  
BEDFORD        CLEAR     78  67  68 CALM      29.94S                  
BLUE HILL      NOT AVBL                                               
NORWOOD        CLEAR     76  66  71 S5        29.95S                  
MARSHFIELD     CLEAR     70  64  83 MISG      29.96S                  
PLYMOUTH       CLEAR     73  66  78 N3        29.96S                  
TAUNTON        CLEAR     74  66  76 CALM      29.95F                  
NEW BEDFORD    CLEAR     75  67  76 CALM      29.95S                  
$$

MAZALL-182300-
CAPE COD AND THE ISLANDS
  
CITY           SKY/WX    TMP DP  RH WIND       PRES   REMARKS
FALMOUTH       CLOUDY    70  66  88 N8        29.97S                  
HYANNIS        FOG       66  66 100 N7        29.95R VSB 1            
CHATHAM        MOCLDY    68  65  90 VRB7      29.96S                  
PROVINCETOWN   FOG       65  65 100 NE6       29.96F VSB 1/4          
NANTUCKET      CLOUDY    71  66  84 N14       29.95R                  
MARTHAS VNYRD  CLEAR     71  67  87 N10       29.96R                  
$$
 
MAZALL-182300-
CENTRAL AND WESTERN MASSACHUSETTS
  
CITY           SKY/WX    TMP DP  RH WIND       PRES   REMARKS
WORCESTER      CLEAR     77  66  68 W5        29.99S                  
FITCHBURG      CLEAR     80  64  58 NE3       29.97R                  
ORANGE         CLEAR     80  66  62 NW3       29.98S                  
SPRINGFIELD    PTCLDY    80  65  59 NW5       29.96R                  
WESTFIELD      PTCLDY    79  70  74 S5        29.96S                  
NORTH ADAMS    PTCLDY    76  65  68 W5        30.00S                  
PITTSFIELD     PTCLDY    74  64  71 NW5       30.01S                  
$$
 
RIZALL-182300-
RHODE ISLAND
  
CITY           SKY/WX    TMP DP  RH WIND       PRES   REMARKS
PROVIDENCE     PTCLDY    76  67  73 E5        29.96S                  
NEWPORT        CLEAR     73  66  78 NE5       29.96S                  
BLOCK ISLAND   CLEAR     71  65  81 E6          N/A                   
SMITHFIELD     CLEAR     77  68  73 E3        29.98R                  
WESTERLY       CLEAR     70  67  90 S6        29.97R                  
$$
 
CTZALL-182300-
CONNECTICUT
  
CITY           SKY/WX    TMP DP  RH WIND       PRES   REMARKS
BRADLEY INTL   PTCLDY    78  68  71 SW5       29.97R                  
HARTFORD       CLEAR     79  65  62 CALM      29.96S                  
BRIDGEPORT     CLEAR     80  69  69 SW6       29.96S                  
DANBURY        CLEAR     82  64  54 N5        29.99S                  
GROTON         CLEAR     74  67  78 SW7       29.96R                  
NEW HAVEN      PTCLDY    79  70  74 SW7       29.97S                  
CHESTER        FAIR      77  70  78 CALM      29.98S                  
MERIDEN        CLEAR     77  67  71 CALM      29.97S                  
WILLIMANTIC    CLEAR     78  66  66 NW3       29.97S                  
OXFORD         PTCLDY    78  67  68 NW5       30.00S                  
$$

MEZ002-015-021-024-NHZ003-005-008-011-012-014-VTZ005-008-182300-
NORTHERN NEW ENGLAND
  
CITY           SKY/WX    TMP DP  RH WIND       PRES   REMARKS
PORTLAND ME    MOCLDY    65  64  97 S3        29.96S                  
BANGOR ME      CLOUDY    71  66  84 N8        29.96S                  
CONCORD NH     MOCLDY    78  66  66 CALM      29.96R                  
MANCHESTER NH  PTCLDY    81  64  56 W3        29.94S                  
NASHUA NH      PTCLDY    75  73  93 CALM      29.96S                  
PORTSMOUTH NH  PTCLDY    69  64  85 SE6       29.96S                  
JAFFREY NH     PTCLDY    75  70  84 CALM      30.00S                  
KEENE NH       MOCLDY    76  70  82 CALM      29.97S                  
BURLINGTON VT  MOCLDY    69  50  50 VRB6      30.07R                  
MT. WASHINGTON FOG       50  50 100 NW33        N/A  VSB 0            
$$

NYZ052-076-182300-
EASTERN NEW YORK
  
CITY           SKY/WX    TMP DP  RH WIND       PRES   REMARKS
ALBANY         PTSUNNY   70  67  90 NW9       30.01R                  
NEW YORK CITY  MOSUNNY   85  62  46 NW8       29.96S                  
$$
 
ANZALL-182300-
MARINE OBSERVATIONS
  
STATION/POSITION TIME  TEMP    WIND        PRES    VSBY  WAVE
                       AIR SEA DIR/SP/G                  HT/PER
                 (UTC) (F)     (DEG/KT/KT) (MB)    (MI)  (FT/S)
BOSTON BUOY      2140      68   CALM  /  2 1014.9F
BUZZARDS BAY     2100           20/  8/  8 1015.3F
NANTUCKET SOUND  2140   68 72  350/ 16/ 17 1014.1F
MASS BAY-STELLWA 2104   67      40/  2/  4 1014.0F  1 7/8  4/11
ISLE OF SHOALS   2100   64     130/  9/ 10 1013.8F
S OF BLOCK IS    2126      71                N/A           6/ 8
$$

......................KEY.........................
  SKY/WX - SKY CONDITION/PRESENT WEATHER
  TMP    - TEMPERATURE IN FAHRENHEIT
  DWPT   - DEWPOINT IN FAHRENHEIT
  RH     - RELATIVE HUMIDITY IN PERCENT
  WIND   - DIRECTION AND SPEED IN MPH
  PRES   - MEAN SEA LEVEL PRESSURE IN INCHES OF HG
  WCI    - WIND CHILL INDEX
  VSB    - VISIBILITY IN MILES
  HX     - HEAT INDEX
  TC     - TEMPERATURE IN CELSIUS
  VRB    - VARIABLE WIND DIRECTION
  N/A    - NOT AVAILABLE
  
      

Other recent Regional Weather Roundups

Thu Sep 23, 4:04am

Thu Sep 23, 3:04am

Thu Sep 23, 2:04am

Thu Sep 23, 1:04am

Thu Sep 23, 12:04am

Wed Sep 22, 11:04pm

Wed Sep 22, 10:04pm

Wed Sep 22, 9:04pm

Wed Sep 22, 8:04pm

Wed Sep 22, 7:04pm

Wed Sep 22, 6:04pm

Wed Sep 22, 5:04pm

Wed Sep 22, 4:04pm

Wed Sep 22, 3:04pm

Wed Sep 22, 2:04pm

Wed Sep 22, 1:04pm

Wed Sep 22, 12:05pm

Wed Sep 22, 11:04am

Wed Sep 22, 10:04am

Wed Sep 22, 9:04am

Wed Sep 22, 8:04am

Wed Sep 22, 7:04am

Wed Sep 22, 6:04am

Wed Sep 22, 5:04am

Wed Sep 22, 4:04am

Wed Sep 22, 3:04am

Wed Sep 22, 2:04am

Wed Sep 22, 1:04am

Wed Sep 22, 12:04am

Tue Sep 21, 11:04pm

Tue Sep 21, 10:04pm

Tue Sep 21, 9:04pm

Tue Sep 21, 8:04pm

Tue Sep 21, 7:04pm

Tue Sep 21, 6:04pm

Tue Sep 21, 5:04pm

Tue Sep 21, 4:04pm

Tue Sep 21, 3:04pm

Tue Sep 21, 2:04pm

Tue Sep 21, 1:04pm

Tue Sep 21, 12:04pm

Tue Sep 21, 11:04am

Tue Sep 21, 10:04am

Tue Sep 21, 9:04am

Tue Sep 21, 8:04am

Tue Sep 21, 7:04am

Tue Sep 21, 6:04am

Tue Sep 21, 5:04am

Tue Sep 21, 4:04am

Tue Sep 21, 3:04am

Tue Sep 21, 2:04am

Tue Sep 21, 1:04am

Tue Sep 21, 12:04am

Mon Sep 20, 11:04pm

Mon Sep 20, 10:04pm

Mon Sep 20, 9:04pm

Mon Sep 20, 8:04pm

Mon Sep 20, 7:04pm

Mon Sep 20, 6:04pm

Mon Sep 20, 5:04pm

Mon Sep 20, 4:04pm

Mon Sep 20, 3:04pm

Mon Sep 20, 2:04pm

Mon Sep 20, 1:04pm

Mon Sep 20, 12:04pm

Mon Sep 20, 11:04am

Mon Sep 20, 10:04am

Mon Sep 20, 9:04am

Mon Sep 20, 7:04am

Mon Sep 20, 6:04am

Mon Sep 20, 5:04am

Mon Sep 20, 4:04am

Mon Sep 20, 3:04am

Mon Sep 20, 2:04am

Mon Sep 20, 1:04am

Mon Sep 20, 12:04am

Sun Sep 19, 11:04pm

Sun Sep 19, 10:04pm

Sun Sep 19, 9:04pm

Sun Sep 19, 8:04pm

Sun Sep 19, 7:04pm

Sun Sep 19, 6:04pm

Sun Sep 19, 5:04pm

Sun Sep 19, 4:04pm

Sun Sep 19, 3:04pm

Sun Sep 19, 2:05pm

Sun Sep 19, 1:04pm

Sun Sep 19, 12:04pm

Sun Sep 19, 11:04am

Sun Sep 19, 10:05am

Sun Sep 19, 9:04am

Sun Sep 19, 8:04am

Sun Sep 19, 7:04am

Sun Sep 19, 6:04am

Sun Sep 19, 5:04am

Sun Sep 19, 4:04am

Sun Sep 19, 3:04am

Sun Sep 19, 2:04am

Sun Sep 19, 1:04am

Sun Sep 19, 12:04am

Sat Sep 18, 11:05pm

Sat Sep 18, 10:04pm

Sat Sep 18, 9:04pm

Sat Sep 18, 8:04pm

Sat Sep 18, 7:04pm

Sat Sep 18, 5:04pm

Sat Sep 18, 4:04pm

Sat Sep 18, 3:04pm

Sat Sep 18, 2:04pm

Sat Sep 18, 1:04pm

Sat Sep 18, 12:04pm

Sat Sep 18, 11:04am

Sat Sep 18, 10:04am

Sat Sep 18, 9:04am

Sat Sep 18, 8:04am

Sat Sep 18, 7:04am

Sat Sep 18, 6:04am

Sat Sep 18, 5:04am

Sat Sep 18, 4:04am

Sat Sep 18, 3:04am

Sat Sep 18, 2:04am

Sat Sep 18, 1:04am

Sat Sep 18, 12:04am

Fri Sep 17, 11:04pm

Fri Sep 17, 10:04pm

Fri Sep 17, 9:04pm

Fri Sep 17, 8:04pm

Fri Sep 17, 7:04pm

Fri Sep 17, 6:04pm

Fri Sep 17, 5:04pm

Fri Sep 17, 4:04pm

Fri Sep 17, 3:04pm

Fri Sep 17, 2:04pm

Fri Sep 17, 1:04pm

Fri Sep 17, 12:05pm

Fri Sep 17, 11:04am

Fri Sep 17, 10:04am

Fri Sep 17, 9:04am

Fri Sep 17, 8:04am

Fri Sep 17, 7:04am

Fri Sep 17, 6:04am

Fri Sep 17, 5:04am

Fri Sep 17, 4:04am

Fri Sep 17, 3:04am

Fri Sep 17, 2:04am

Fri Sep 17, 1:04am

Fri Sep 17, 12:04am

Thu Sep 16, 11:04pm

Thu Sep 16, 10:04pm

Thu Sep 16, 9:04pm

Thu Sep 16, 8:04pm

Thu Sep 16, 7:04pm

Thu Sep 16, 6:04pm

Thu Sep 16, 5:04pm

Thu Sep 16, 4:04pm

Thu Sep 16, 3:04pm

Thu Sep 16, 2:04pm

Thu Sep 16, 1:05pm

Thu Sep 16, 12:04pm

Thu Sep 16, 11:05am

Thu Sep 16, 10:05am

Thu Sep 16, 9:04am

Thu Sep 16, 8:04am

Thu Sep 16, 7:04am

Thu Sep 16, 6:04am

Thu Sep 16, 5:04am

Meta data:

ID: 64ed2cd7-d55e-474e-ab86-ebaa11c99940
Link: https://api.weather.gov/products/64ed2cd7-d55e-474e-ab86-ebaa11c99940